KPF56U LIBG-LOWW

Flight info

Callsign KPF56U
Flight time 1h 25m
Altitude 18000
Route KAPPO Z748 CRAYE/N0452F400 DCT OBUTI OBUTI2W
Aircraft CL60/M-SBDE1E2E3FGHIJ1J4J5J7M3RWXYZ/LB1V1D1

Departure

Time 2026-05-06 18:21
Airport Taranto-Grottaglie Marcello Arlotta Airport (LIBG)

Arrival

Time 2026-05-06 19:47
Airport Vienna International Airport (LOWW)
Time Latitude Longitude Altitude Speed Heading
2026-05-06 18:02 40.51048 17.40017 201 ft 0 kts 89°
2026-05-06 18:18 40.51012 17.40036 201 ft 9 kts 175°
2026-05-06 18:18 40.50949 17.40061 201 ft 9 kts 148°
2026-05-06 18:19 40.50936 17.40131 201 ft 8 kts 78°
2026-05-06 18:19 40.50949 17.40216 202 ft 10 kts 80°
2026-05-06 18:19 40.50965 17.40324 203 ft 13 kts 79°
2026-05-06 18:19 40.50982 17.40448 204 ft 12 kts 80°
2026-05-06 18:20 40.51009 17.40507 204 ft 6 kts 35°
2026-05-06 18:20 40.51007 17.40526 204 ft 0 kts 171°
2026-05-06 18:20 40.50888 17.40557 205 ft 64 kts 168°
2026-05-06 18:20 40.50555 17.40646 207 ft 119 kts 171°
2026-05-06 18:21 40.49569 17.40921 672 ft 158 kts 167°
2026-05-06 18:21 40.48578 17.41228 1422 ft 136 kts 170°
2026-05-06 18:21 40.47629 17.41470 2195 ft 153 kts 172°
2026-05-06 18:21 40.46495 17.41755 2952 ft 183 kts 172°
2026-05-06 18:22 40.45141 17.42097 3729 ft 215 kts 172°
2026-05-06 18:22 40.43626 17.42506 4470 ft 228 kts 166°
2026-05-06 18:22 40.42279 17.43606 5225 ft 237 kts 133°
2026-05-06 18:22 40.41606 17.45600 5998 ft 248 kts 96°
2026-05-06 18:23 40.41985 17.47803 6777 ft 256 kts 58°
2026-05-06 18:23 40.43144 17.49582 7547 ft 259 kts 46°
2026-05-06 18:23 40.44405 17.51283 8306 ft 261 kts 46°
2026-05-06 18:23 40.45663 17.52986 9046 ft 263 kts 46°
2026-05-06 18:24 40.46937 17.54724 9805 ft 266 kts 46°
2026-05-06 18:24 40.48216 17.56503 10570 ft 269 kts 46°
2026-05-06 18:24 40.49512 17.58312 11334 ft 273 kts 46°
2026-05-06 18:24 40.50810 17.60127 12078 ft 277 kts 46°
2026-05-06 18:25 40.52219 17.61934 12841 ft 289 kts 33°
2026-05-06 18:25 40.54081 17.63108 13604 ft 308 kts 18°
2026-05-06 18:25 40.56144 17.64132 14198 ft 334 kts 18°
2026-05-06 18:25 40.58415 17.65274 14680 ft 361 kts 19°
2026-05-06 18:26 40.60870 17.66518 15184 ft 382 kts 19°
2026-05-06 18:26 40.63401 17.67806 15691 ft 394 kts 19°
2026-05-06 18:26 40.65959 17.69114 16342 ft 394 kts 19°
2026-05-06 18:26 40.68511 17.70420 17090 ft 398 kts 18°
2026-05-06 18:27 40.71119 17.71755 17847 ft 403 kts 18°
2026-05-06 18:27 40.73767 17.73112 18623 ft 410 kts 18°
2026-05-06 18:27 40.76420 17.74474 19375 ft 416 kts 18°
2026-05-06 18:27 40.79136 17.75871 20121 ft 419 kts 18°
2026-05-06 18:28 40.81869 17.77278 20893 ft 422 kts 18°
2026-05-06 18:28 40.84625 17.78698 21648 ft 426 kts 18°
2026-05-06 18:28 40.87393 17.80127 22416 ft 429 kts 18°
2026-05-06 18:28 40.90184 17.81569 23164 ft 432 kts 18°
2026-05-06 18:29 40.92983 17.83016 23931 ft 435 kts 18°
2026-05-06 18:29 40.95841 17.84495 24696 ft 437 kts 18°
2026-05-06 18:29 40.98696 17.85974 25350 ft 442 kts 18°
2026-05-06 18:29 41.01563 17.87460 25950 ft 447 kts 17°
2026-05-06 18:30 41.04474 17.88971 26538 ft 451 kts 17°
2026-05-06 18:30 41.07442 17.90513 27111 ft 455 kts 17°
2026-05-06 18:30 41.10370 17.92036 27642 ft 459 kts 17°
2026-05-06 18:30 41.13387 17.93608 28225 ft 461 kts 17°
2026-05-06 18:31 41.16363 17.95160 28732 ft 464 kts 17°
2026-05-06 18:31 41.19384 17.96737 29205 ft 467 kts 17°
2026-05-06 18:31 41.22422 17.98324 29655 ft 469 kts 17°
2026-05-06 18:31 41.25486 17.99927 30192 ft 470 kts 16°
2026-05-06 18:32 41.28530 18.01521 30755 ft 469 kts 16°
2026-05-06 18:32 41.31552 18.03106 31361 ft 468 kts 16°
2026-05-06 18:32 41.34589 18.04700 31974 ft 466 kts 16°
2026-05-06 18:32 41.37570 18.06266 32558 ft 464 kts 16°
2026-05-06 18:33 41.40574 18.07847 33167 ft 461 kts 16°
2026-05-06 18:33 41.43562 18.09369 33671 ft 458 kts 12°
2026-05-06 18:33 41.46626 18.10492 34126 ft 451 kts
2026-05-06 18:33 41.49743 18.11099 34549 ft 445 kts 358°
2026-05-06 18:34 41.52786 18.11193 34966 ft 438 kts 351°
2026-05-06 18:34 41.55831 18.10799 35330 ft 432 kts 345°
2026-05-06 18:34 41.58749 18.09959 35713 ft 427 kts 339°
2026-05-06 18:34 41.61634 18.08945 36109 ft 426 kts 339°
2026-05-06 18:35 41.64508 18.07936 36508 ft 424 kts 339°
2026-05-06 18:35 41.67376 18.06928 36883 ft 424 kts 339°
2026-05-06 18:35 41.70209 18.05932 37305 ft 423 kts 339°
2026-05-06 18:35 41.73091 18.04918 37735 ft 422 kts 339°
2026-05-06 18:36 41.75922 18.03921 38192 ft 420 kts 339°
2026-05-06 18:36 41.78737 18.02928 38559 ft 419 kts 339°
2026-05-06 18:36 41.81571 18.01927 38881 ft 419 kts 339°
2026-05-06 18:36 41.84382 18.00933 39097 ft 420 kts 339°
2026-05-06 18:37 41.87221 17.99928 39347 ft 420 kts 339°
2026-05-06 18:37 41.89117 17.99256 39485 ft 421 kts 339°
2026-05-06 18:37 41.92886 17.97920 39898 ft 419 kts 339°
2026-05-06 18:37 41.95716 17.96916 40022 ft 421 kts 339°
2026-05-06 18:38 42.01425 17.94883 40014 ft 428 kts 339°
2026-05-06 18:38 42.07274 17.92800 40008 ft 431 kts 339°
2026-05-06 18:39 42.13100 17.90722 40006 ft 432 kts 339°
2026-05-06 18:40 42.19929 17.88285 40007 ft 431 kts 339°
2026-05-06 18:40 42.25731 17.86207 40022 ft 431 kts 339°
2026-05-06 18:41 42.31538 17.84122 40012 ft 433 kts 339°
2026-05-06 18:41 42.37402 17.82013 40017 ft 434 kts 339°
2026-05-06 18:42 42.43252 17.79905 40018 ft 434 kts 339°
2026-05-06 18:42 42.49094 17.77796 40021 ft 434 kts 339°
2026-05-06 18:43 42.54941 17.75682 40021 ft 433 kts 339°
2026-05-06 18:43 42.60817 17.73552 40023 ft 434 kts 339°
2026-05-06 18:44 42.66670 17.71426 40021 ft 434 kts 339°
2026-05-06 18:44 42.72542 17.69290 40026 ft 435 kts 339°
2026-05-06 18:45 42.78386 17.67159 40022 ft 435 kts 339°
2026-05-06 18:45 42.84275 17.65008 40027 ft 436 kts 339°
2026-05-06 18:46 42.90171 17.62850 40025 ft 436 kts 339°
2026-05-06 18:46 42.96029 17.60703 40035 ft 435 kts 339°
2026-05-06 18:47 43.01928 17.58535 40026 ft 436 kts 339°
2026-05-06 18:47 43.07792 17.56376 40021 ft 436 kts 339°
2026-05-06 18:48 43.13656 17.54213 40021 ft 437 kts 339°
2026-05-06 18:48 43.19565 17.52028 40026 ft 438 kts 339°
2026-05-06 18:49 43.25498 17.49830 40027 ft 439 kts 338°
2026-05-06 18:49 43.31405 17.47639 40032 ft 439 kts 339°
2026-05-06 18:50 43.37291 17.45449 40039 ft 439 kts 339°
2026-05-06 18:50 43.43226 17.43238 40041 ft 440 kts 339°
2026-05-06 18:51 43.49126 17.41036 40042 ft 439 kts 339°
2026-05-06 18:51 43.55024 17.38830 40039 ft 440 kts 339°
2026-05-06 18:52 43.60931 17.36615 40040 ft 440 kts 339°
2026-05-06 18:52 43.66873 17.34385 40043 ft 440 kts 338°
2026-05-06 18:53 43.72807 17.32152 40032 ft 441 kts 338°
2026-05-06 18:53 43.78716 17.29923 40038 ft 443 kts 338°
2026-05-06 18:54 43.84693 17.27664 40037 ft 443 kts 338°
2026-05-06 18:54 43.90664 17.25403 40040 ft 444 kts 338°
2026-05-06 18:55 43.96624 17.23142 40033 ft 444 kts 338°
2026-05-06 18:55 44.02609 17.20866 40033 ft 444 kts 338°
2026-05-06 18:56 44.08622 17.18575 40034 ft 445 kts 338°
2026-05-06 18:56 44.14621 17.16284 40032 ft 447 kts 338°
2026-05-06 18:57 44.20672 17.13966 40027 ft 453 kts 338°
2026-05-06 18:57 44.26811 17.11610 40009 ft 458 kts 339°
2026-05-06 18:58 44.32984 17.09238 40026 ft 461 kts 339°
2026-05-06 18:58 44.39182 17.06853 40008 ft 462 kts 339°
2026-05-06 18:59 44.45419 17.04448 40007 ft 462 kts 338°
2026-05-06 18:59 44.51583 17.02064 40010 ft 462 kts 339°
2026-05-06 19:00 44.57827 16.99645 39991 ft 463 kts 339°
2026-05-06 19:00 44.64007 16.97245 39990 ft 462 kts 339°
2026-05-06 19:01 44.70248 16.94815 39981 ft 463 kts 339°
2026-05-06 19:01 44.76485 16.92382 39967 ft 464 kts 339°
2026-05-06 19:02 44.82688 16.89956 39976 ft 463 kts 339°
2026-05-06 19:02 44.88943 16.87504 39948 ft 464 kts 339°
2026-05-06 19:03 44.95130 16.85073 39947 ft 465 kts 339°
2026-05-06 19:03 45.01420 16.82596 39940 ft 466 kts 339°
2026-05-06 19:04 45.07637 16.80143 39946 ft 466 kts 340°
2026-05-06 19:04 45.13918 16.77659 39928 ft 466 kts 340°
2026-05-06 19:05 45.20165 16.75182 39928 ft 466 kts 340°
2026-05-06 19:05 45.26404 16.72703 39927 ft 466 kts 340°
2026-05-06 19:06 45.32689 16.70200 39914 ft 464 kts 340°
2026-05-06 19:06 45.38834 16.67750 39911 ft 457 kts 340°
2026-05-06 19:07 45.44936 16.65308 39910 ft 455 kts 340°
2026-05-06 19:07 45.51131 16.63112 39912 ft 458 kts 343°
2026-05-06 19:08 45.57387 16.61196 39897 ft 459 kts 343°
2026-05-06 19:08 45.63635 16.59269 39903 ft 459 kts 343°
2026-05-06 19:09 45.69911 16.57327 39908 ft 459 kts 343°
2026-05-06 19:09 45.76147 16.55389 39889 ft 459 kts 344°
2026-05-06 19:10 45.82413 16.53435 39899 ft 459 kts 343°
2026-05-06 19:10 45.88685 16.51473 39894 ft 460 kts 343°
2026-05-06 19:11 45.94941 16.49511 39905 ft 460 kts 344°
2026-05-06 19:11 46.01174 16.47550 39882 ft 461 kts 344°
2026-05-06 19:12 46.07453 16.45570 39886 ft 460 kts 343°
2026-05-06 19:12 46.13717 16.43590 39895 ft 460 kts 343°
2026-05-06 19:13 46.20012 16.41594 39898 ft 461 kts 343°
2026-05-06 19:13 46.26291 16.39598 39369 ft 464 kts 344°
2026-05-06 19:13 46.29438 16.38599 38761 ft 458 kts 343°
2026-05-06 19:14 46.32552 16.37608 38168 ft 455 kts 343°
2026-05-06 19:14 46.35630 16.36627 37599 ft 453 kts 343°
2026-05-06 19:14 46.38736 16.35635 37025 ft 454 kts 343°
2026-05-06 19:14 46.41772 16.34485 36491 ft 450 kts 336°
2026-05-06 19:15 46.44635 16.32705 35867 ft 446 kts 327°
2026-05-06 19:15 46.47216 16.30265 35330 ft 438 kts 317°
2026-05-06 19:15 46.49587 16.27437 34801 ft 437 kts 315°
2026-05-06 19:15 46.51930 16.24570 34277 ft 438 kts 315°
2026-05-06 19:16 46.54268 16.21701 33845 ft 439 kts 315°
2026-05-06 19:16 46.56619 16.18893 33437 ft 442 kts 319°
2026-05-06 19:16 46.59271 16.16489 33024 ft 449 kts 328°
2026-05-06 19:16 46.62178 16.14754 32613 ft 457 kts 338°
2026-05-06 19:17 46.65306 16.13714 32140 ft 463 kts 348°
2026-05-06 19:17 46.68527 16.13192 31550 ft 466 kts 350°
2026-05-06 19:17 46.71755 16.12723 30859 ft 468 kts 350°
2026-05-06 19:17 46.74981 16.12257 30114 ft 470 kts 350°
2026-05-06 19:18 46.78253 16.11790 29366 ft 471 kts 351°
2026-05-06 19:18 46.81548 16.11322 28603 ft 472 kts 351°
2026-05-06 19:18 46.84782 16.10868 27857 ft 469 kts 351°
2026-05-06 19:18 46.88004 16.10418 27202 ft 462 kts 351°
2026-05-06 19:19 46.91221 16.09970 26597 ft 460 kts 351°
2026-05-06 19:19 46.94422 16.09524 25969 ft 458 kts 351°
2026-05-06 19:19 46.97579 16.09087 25360 ft 456 kts 351°
2026-05-06 19:19 47.00733 16.08651 24759 ft 453 kts 351°
2026-05-06 19:20 47.03851 16.08220 24165 ft 451 kts 351°
2026-05-06 19:20 47.06985 16.07788 23561 ft 447 kts 351°
2026-05-06 19:20 47.10028 16.07369 22960 ft 444 kts 351°
2026-05-06 19:20 47.13147 16.06941 22383 ft 440 kts 351°
2026-05-06 19:21 47.16208 16.06519 21794 ft 435 kts 351°
2026-05-06 19:21 47.18872 16.06152 21286 ft 432 kts 351°
2026-05-06 19:21 47.21866 16.05740 20697 ft 428 kts 351°
2026-05-06 19:21 47.24838 16.05332 20128 ft 424 kts 351°
2026-05-06 19:22 47.27777 16.04929 19562 ft 421 kts 352°
2026-05-06 19:22 47.30709 16.05005 18991 ft 421 kts
2026-05-06 19:22 47.33493 16.06260 18408 ft 420 kts 24°
2026-05-06 19:22 47.36018 16.08370 17958 ft 416 kts 30°
2026-05-06 19:23 47.38536 16.10587 17837 ft 416 kts 30°
2026-05-06 19:23 47.41024 16.12768 17825 ft 417 kts 30°
2026-05-06 19:23 47.43511 16.14948 17812 ft 418 kts 30°
2026-05-06 19:23 47.46035 16.17163 17658 ft 419 kts 30°
2026-05-06 19:24 47.48534 16.19358 17460 ft 417 kts 30°
2026-05-06 19:24 47.51051 16.21571 17258 ft 415 kts 30°
2026-05-06 19:24 47.53532 16.23753 17052 ft 414 kts 30°
2026-05-06 19:24 47.55991 16.25918 16846 ft 413 kts 30°
2026-05-06 19:25 47.58460 16.28094 16645 ft 411 kts 30°
2026-05-06 19:25 47.60911 16.30256 16436 ft 411 kts 30°
2026-05-06 19:25 47.63366 16.32425 16224 ft 410 kts 30°
2026-05-06 19:25 47.65832 16.34604 16031 ft 409 kts 30°
2026-05-06 19:26 47.68290 16.36779 15833 ft 407 kts 30°
2026-05-06 19:26 47.70729 16.38938 15639 ft 407 kts 30°
2026-05-06 19:26 47.73148 16.41083 15433 ft 406 kts 30°
2026-05-06 19:26 47.75590 16.43250 15222 ft 404 kts 30°
2026-05-06 19:27 47.78006 16.45396 15034 ft 403 kts 30°
2026-05-06 19:27 47.80426 16.47547 14826 ft 403 kts 30°
2026-05-06 19:27 47.82830 16.49688 14626 ft 401 kts 30°
2026-05-06 19:27 47.85230 16.51827 14432 ft 400 kts 30°
2026-05-06 19:28 47.87598 16.53938 13969 ft 399 kts 30°
2026-05-06 19:28 47.89977 16.56064 13535 ft 386 kts 30°
2026-05-06 19:28 47.92257 16.58102 13124 ft 387 kts 30°
2026-05-06 19:28 47.94565 16.60168 12624 ft 380 kts 30°
2026-05-06 19:29 47.96794 16.62165 12097 ft 364 kts 29°
2026-05-06 19:29 47.98902 16.64057 11686 ft 345 kts 29°
2026-05-06 19:29 48.00921 16.65870 11240 ft 331 kts 30°
2026-05-06 19:29 48.02868 16.67619 10827 ft 320 kts 30°
2026-05-06 19:30 48.04780 16.69337 10411 ft 319 kts 30°
2026-05-06 19:30 48.06671 16.71037 10065 ft 314 kts 30°
2026-05-06 19:30 48.08547 16.72697 9991 ft 314 kts 26°
2026-05-06 19:30 48.10618 16.73709 9992 ft 310 kts
2026-05-06 19:31 48.12740 16.73521 9995 ft 303 kts 341°
2026-05-06 19:31 48.14673 16.72316 9988 ft 298 kts 328°
2026-05-06 19:31 48.18367 16.69445 9799 ft 301 kts 329°
2026-05-06 19:32 48.20229 16.68006 9477 ft 298 kts 329°
2026-05-06 19:32 48.22089 16.66592 9153 ft 296 kts 332°
2026-05-06 19:32 48.24048 16.65625 8813 ft 296 kts 341°
2026-05-06 19:32 48.26030 16.64810 8497 ft 295 kts 341°
2026-05-06 19:33 48.28016 16.63982 8159 ft 294 kts 341°
2026-05-06 19:33 48.30009 16.63149 7843 ft 293 kts 341°
2026-05-06 19:33 48.31967 16.62331 7691 ft 289 kts 341°
2026-05-06 19:33 48.33930 16.61507 7561 ft 292 kts 341°
2026-05-06 19:34 48.35879 16.60688 7437 ft 291 kts 341°
2026-05-06 19:34 48.37822 16.59872 7315 ft 287 kts 340°
2026-05-06 19:34 48.39735 16.59068 6888 ft 285 kts 341°
2026-05-06 19:34 48.41649 16.58261 6440 ft 284 kts 341°
2026-05-06 19:35 48.43492 16.57488 6401 ft 266 kts 340°
2026-05-06 19:35 48.45246 16.56751 6217 ft 257 kts 340°
2026-05-06 19:35 48.46947 16.56033 6110 ft 244 kts 340°
2026-05-06 19:35 48.48560 16.55353 5976 ft 235 kts 340°
2026-05-06 19:36 48.50082 16.54710 5965 ft 226 kts 340°
2026-05-06 19:36 48.51640 16.54045 5957 ft 232 kts 340°
2026-05-06 19:36 48.53185 16.53381 5957 ft 231 kts 337°
2026-05-06 19:36 48.54506 16.52161 5939 ft 219 kts 304°
2026-05-06 19:37 48.55048 16.50110 5776 ft 206 kts 266°
2026-05-06 19:37 48.54606 16.48175 5576 ft 196 kts 227°
2026-05-06 19:37 48.53438 16.47149 5384 ft 195 kts 199°
2026-05-06 19:37 48.52556 16.46822 5257 ft 195 kts 192°
2026-05-06 19:38 48.50778 16.46641 5000 ft 189 kts 186°
2026-05-06 19:38 48.49494 16.46602 4952 ft 176 kts 186°
2026-05-06 19:38 48.48260 16.46576 4956 ft 178 kts 186°
2026-05-06 19:38 48.47019 16.46547 4948 ft 178 kts 186°
2026-05-06 19:39 48.45777 16.46509 4952 ft 178 kts 186°
2026-05-06 19:39 48.44529 16.46472 4956 ft 177 kts 186°
2026-05-06 19:39 48.43290 16.46448 4961 ft 178 kts 186°
2026-05-06 19:39 48.42047 16.46426 4963 ft 178 kts 186°
2026-05-06 19:40 48.40797 16.46402 4963 ft 178 kts 186°
2026-05-06 19:40 48.39555 16.46385 4966 ft 178 kts 185°
2026-05-06 19:40 48.38324 16.46601 4977 ft 181 kts 174°
2026-05-06 19:40 48.37090 16.47100 4977 ft 183 kts 171°
2026-05-06 19:41 48.35866 16.47640 4978 ft 183 kts 171°
2026-05-06 19:41 48.34642 16.48170 4976 ft 182 kts 171°
2026-05-06 19:41 48.33419 16.48694 4938 ft 183 kts 171°
2026-05-06 19:41 48.32179 16.49222 4771 ft 185 kts 171°
2026-05-06 19:42 48.30912 16.49763 4481 ft 188 kts 171°
2026-05-06 19:42 48.29648 16.50302 4141 ft 191 kts 171°
2026-05-06 19:42 48.28367 16.50849 3824 ft 192 kts 171°
2026-05-06 19:42 48.27097 16.51395 3595 ft 181 kts 171°
2026-05-06 19:43 48.25925 16.51897 3399 ft 174 kts 172°
2026-05-06 19:43 48.24752 16.52392 3164 ft 173 kts 172°
2026-05-06 19:43 48.23608 16.52880 2924 ft 171 kts 172°
2026-05-06 19:43 48.22452 16.53371 2702 ft 170 kts 171°
2026-05-06 19:44 48.21313 16.53854 2475 ft 169 kts 170°
2026-05-06 19:44 48.20220 16.54324 2237 ft 154 kts 170°
2026-05-06 19:44 48.19265 16.54740 2080 ft 133 kts 171°
2026-05-06 19:44 48.18375 16.55114 1898 ft 135 kts 171°
2026-05-06 19:45 48.17461 16.55492 1779 ft 135 kts 171°
2026-05-06 19:45 48.16590 16.55862 1556 ft 122 kts 169°
2026-05-06 19:45 48.15788 16.56207 1399 ft 119 kts 169°
2026-05-06 19:45 48.15003 16.56540 1239 ft 116 kts 168°
2026-05-06 19:46 48.14225 16.56866 1094 ft 116 kts 167°
2026-05-06 19:46 48.13448 16.57183 937 ft 118 kts 166°
2026-05-06 19:46 48.12659 16.57519 762 ft 115 kts 166°
2026-05-06 19:46 48.11861 16.57863 622 ft 115 kts 165°
2026-05-06 19:47 48.11258 16.58117 607 ft 35 kts 165°
2026-05-06 19:47 48.11126 16.58157 607 ft 18 kts 188°
2026-05-06 19:47 48.11066 16.58056 607 ft 7 kts 256°
2026-05-06 19:47 48.11092 16.57913 607 ft 14 kts 295°
2026-05-06 19:48 48.11143 16.57759 607 ft 11 kts 296°
2026-05-06 19:48 48.11200 16.57583 607 ft 22 kts 296°
2026-05-06 19:48 48.11254 16.57418 607 ft 20 kts 295°
2026-05-06 19:48 48.11321 16.57214 607 ft 17 kts 296°
2026-05-06 19:49 48.11340 16.57080 607 ft 10 kts 232°
2026-05-06 19:49 48.11317 16.56945 607 ft 20 kts 294°
2026-05-06 19:49 48.11396 16.56698 607 ft 24 kts 297°
2026-05-06 19:49 48.11467 16.56484 607 ft 24 kts 297°
2026-05-06 19:50 48.11547 16.56234 607 ft 27 kts 296°
2026-05-06 19:50 48.11618 16.56015 607 ft 18 kts 297°
2026-05-06 19:50 48.11680 16.55831 607 ft 21 kts 296°
2026-05-06 19:50 48.11751 16.55612 607 ft 25 kts 296°
2026-05-06 19:51 48.11834 16.55358 607 ft 26 kts 296°
2026-05-06 19:51 48.11902 16.55148 607 ft 24 kts 296°
2026-05-06 19:51 48.11982 16.54901 607 ft 25 kts 296°
2026-05-06 19:51 48.12052 16.54687 607 ft 23 kts 296°
2026-05-06 19:52 48.12130 16.54447 607 ft 27 kts 296°
2026-05-06 19:52 48.12204 16.54218 607 ft 23 kts 296°
2026-05-06 19:52 48.12276 16.54000 607 ft 25 kts 296°
2026-05-06 19:52 48.12340 16.53801 607 ft 14 kts 296°
2026-05-06 19:53 48.12372 16.53703 607 ft 5 kts 296°
2026-05-06 19:53 48.12380 16.53681 607 ft 0 kts 296°
2026-05-06 19:54 48.12384 16.53668 607 ft 4 kts 295°
2026-05-06 19:54 48.12421 16.53625 607 ft 10 kts
2026-05-06 19:54 48.12497 16.53626 607 ft 11 kts
2026-05-06 19:54 48.12581 16.53678 607 ft 15 kts 26°
2026-05-06 19:55 48.12690 16.53753 607 ft 18 kts 27°
2026-05-06 19:55 48.12763 16.53854 607 ft 14 kts 77°
2026-05-06 19:55 48.12801 16.53955 607 ft 7 kts 358°
2026-05-06 19:55 48.12822 16.53937 607 ft 0 kts 299°